Location: Bord�res
(43.2000°N, 0.2167°W)
Time: 13:49:24
(UTC+00:00)

Cosmos 2219 Rocket - Pass Details

Date: 03 March 2021
Orbit: 826 x 848 km, 71.0° (Epoch: 13 April)

Event Time Altitude Azimuth Distance (km) Brightness Sun altitude
Rises 21:06:37 0° 234° (SW) 3,357 5.6 -35.1°
Reaches altitude 10° 21:09:19 10° 244° (WSW) 2,429 4.9 -35.6°
Maximum altitude 21:14:12 30° 306° (NW) 1,439 3.8 -36.4°
Drops below altitude 10° 21:19:07 10° 7° (N) 2,451 4.8 -37.1°
Sets 21:21:53 0° 18° (NNE) 3,393 5.5 -37.6°
